Location: Newark
(49.8969°N, 3.3422°E)
Time: 11:22:57
(UTC+00:00)

Explorer 7 - Pass Details

Date: 25 January 2020
Orbit: 485 x 679 km, 50.3° (Epoch: 25 February)

Event Time Altitude Azimuth Distance (km) Brightness Sun altitude
Rises 05:12:09 0° 279° (W) 2,602 - -21.9°
Reaches altitude 10° 05:15:18 10° 251° (WSW) 1,746 - -21.4°
Maximum altitude 05:17:10 13° 222° (SW) 1,578 - -21.1°
Exits shadow 05:18:58 10° 195° (SSW) 1,768 9.3 -20.8°
Drops below altitude 10° 05:19:04 10° 194° (SSW) 1,788 9.3 -20.8°
Sets 05:22:23 0° 167° (SSE) 2,724 10.6 -20.3°
